BLUE GHOST (62716 NORAD) Tracking and Keplerian Element Data

This shows tracking and keplerian element data for the satellite.

Feedback or suggestion? Click here.




ElementValue
Catalog62716
NameBLUE GHOST
Epoch Orbit0
Epoch Day15.29938097
Epoch Year2025
RAAN359.0739
Inclination35.04
Eccentricity0.96084
Argument of Perigee346.42
Mean Anonmoly0.0135
Mean Motion0.12641706
Decay Rate-0.00032
L11 62716U 25010A 25015.29938097 -.00032000 26295-4 00000+0 0 9993
L22 62716 35.0400 359.0739 9608400 346.4200 0.0135 0.12641706 04



Live tracking and technical data element details for BLUE GHOST (NORAD 62716). BLUE GHOST can be tracked NOW for your location showing map with azimuth and elevation plus other details from your city location.







IsCatalogInMostPopularTable: catalog: 62716, numindb: 3
Update: records affected: 1



GetName: 62716 BLUE GHOST

Hit Count: updated at: Sun, 09 Feb 2025 14:14:27 GMT